Location: Ammerl�gen
(47.2167°N, 9.6000°E)
Time: 04:28:24
(UTC+00:00)

Cosmos 2219 - Pass Details

Date: 21 April 2021
Orbit: 834 x 860 km, 71.1° (Epoch: 16 May)

Event Time Altitude Azimuth Distance (km) Brightness Sun altitude
Rises 19:20:00 0° 179° (S) 3,368 6.0 -10.2°
Reaches altitude 10° 19:22:36 10° 170° (S) 2,437 5.2 -10.6°
Maximum altitude 19:27:37 36° 106° (ESE) 1,308 3.7 -11.3°
Drops below altitude 10° 19:32:41 10° 42° (NE) 2,456 5.5 -12.0°
Sets 19:35:18 0° 34° (NE) 3,397 6.4 -12.4°
